Regional Weather Roundup
Issued by NWS Sterling, VA

Home | Current Version | Previous Version | Text Only | Print | Product List | Glossary Off
Versions: 1 2 3 4 5 6 7 8 9 10 11 12 13 14 15 16 17 18 19 20 21 22 23 24 25 26 27 28 29 30 31 32 33 34 35 36 37 38 39 40 41 42 43 44 45 46 47 48 49 50

000
ASUS41 KLWX 292011
RWRLWX

REGIONAL WEATHER ROUNDUP
NATIONAL WEATHER SERVICE BALTIMORE MD/WASHINGTON DC
400 PM EDT MON MAY 29 2017

Note: "FAIR" indicates few or no clouds below 12,000 feet
with no significant weather and/or obstructions to visibility.
 TC=TEMPERATURE CELSIUS

 * =Non NWS site. Station does not report precipitation (e.g. rain,
    snow, etc.), thunder, or fog.

DCZ001-MDZ009-015-VAZ040>042-051-053>054-292100-
WASHINGTON METRO

CITY           SKY/WX    TMP DP  RH WIND       PRES   REMARKS
WASHINGTON NAT PTSUNNY   84  52  33 NW15      29.92S
DULLES         PTSUNNY   80  54  40 W13       29.93S
ANDREWS AFB    MOSUNNY   83  59  44 NW7       29.91F
FT BELVOIR     MOSUNNY   85  55  36 NW13      29.92S
QUANTICO       PTSUNNY   80  69  69 SW6       29.93S
COLLEGE PARK*  MOSUNNY   82  56  41 W6        29.91F
LEESBURG*      MOSUNNY   82  61  47 NW12      29.95R
MANASSAS*      CLOUDY    83  57  41 N10       29.93S
GAITHERSBURG*  MOSUNNY   80  59  48 W13       29.95S

$$

MDZ006>007-011-014-292100-
BALTIMORE METRO

CITY           SKY/WX    TMP DP  RH WIND       PRES   REMARKS
BWI AIRPORT    PTSUNNY   75  67  76 E12       29.92F
MD SCIENCE CTR   N/A     74  65  73 MISG      29.94F
MARTIN STATE   PTSUNNY   72  68  88 E5        29.96S
ANNAPOLIS      SUNNY     74  69  85 SE8       29.94F
FORT MEADE*    SUNNY     77  66  69 E8        29.94F

$$

MDZ012-015-019>023-292100-
MARYLAND EASTERN SHORE

CITY           SKY/WX    TMP DP  RH WIND       PRES   REMARKS
OCEAN CITY     CLOUDY    65  59  81 E9        29.99S
SALISBURY      MOSUNNY   74  66  76 VRB7      29.96S
BAY BRIDGE AP* SUNNY     75  63  64 E5        29.94S
CAMBRIDGE*     MOSUNNY   77  64  65 CALM      29.94F
EASTON*        MOSUNNY   77  64  65 E5        29.98S

$$

MDZ017>025-292100-
SOUTHERN MARYLAND

CITY           SKY/WX    TMP DP  RH WIND       PRES   REMARKS
PATUXENT RIVER MOSUNNY   74  70  87 SE8       29.93F
ST INIGOES     SUNNY     79  71  76 E8        29.92S
LEONARDTOWN*   CLOUDY    73  66  78 E6        29.95R

$$

MDZ003>005-292100-
NORTH CENTRAL MARYLAND

CITY           SKY/WX    TMP DP  RH WIND       PRES   REMARKS
FREDERICK*     NOT AVBL
HAGERSTOWN APT MOSUNNY   81  54  39 W12       29.92S
WESTMINSTER*   CLOUDY    81  61  50 W7        29.93S

$$

MDZ501>502-292100-
WESTERN MARYLAND

CITY           SKY/WX    TMP DP  RH WIND       PRES   REMARKS
OAKLAND*       MOSUNNY   68  52  56 W7        30.04R
CUMBERLAND*    CLOUDY    79  52  38 W9        29.98R

$$

VAZ025>031-292100-
SHENANDOAH VALLEY

CITY           SKY/WX    TMP DP  RH WIND       PRES   REMARKS
WINCHESTER*    CLOUDY    77  54  44 W10       29.96R
FRONT ROYAL*   CLOUDY    79  55  44 CALM      29.95R
LURAY*         CLOUDY    79  50  36 NW7       29.96S
NEW MARKET*    MOSUNNY   78  51  38 NW3       29.95S
STAUNTON*      MOSUNNY   78  50  37 W7        29.99R
WAYNESBORO*    CLOUDY    78  53  42 W7        30.00R

$$

WVZ021-048>050-054>055-292100-
EASTERN WEST VIRGINIA PANHANDLE

CITY           SKY/WX    TMP DP  RH WIND       PRES   REMARKS
MARTINSBURG    MOSUNNY   79  56  45 SW8       29.92F
PETERSBURG*    CLOUDY    78  56  46 SW5       29.98R

$$

VAZ036>039-050-292100-
CENTRAL FOOTHILLS

CITY           SKY/WX    TMP DP  RH WIND       PRES   REMARKS
CHARLOTTESVILL CLOUDY    85  59  41 NW3       29.94R
CULPEPER*      CLOUDY    84  58  41 NW9       29.94R
ORANGE*        CLOUDY    81  63  54 SW6       29.93R
GORDONSVILLE*  CLOUDY    82  63  52 CALM      29.93S
WARRENTON*     CLOUDY    86  51  29 N8        29.92S

$$

VAZ055>057-292100-
NORTH AND CENTRAL PIEDMONT

CITY           SKY/WX    TMP DP  RH WIND       PRES   REMARKS
FREDERICKSBRG* MOSUNNY   83  65  53 W6        29.92R
STAFFORD*      PTSUNNY   82  64  55 CALM      29.97R

$$

NCZ024-NYZ072-PAZ021-071-VAZ022-071-292100-
OTHER REGIONAL OBSERVATIONS

CITY           SKY/WX    TMP DP  RH WIND       PRES   REMARKS
NEW YORK CITY  CLOUDY    57  52  83 NE8       30.04R
PHILADELPHIA   CLOUDY    63  57  81 E7        30.00R
PITTSBURGH     MOSUNNY   77  49  37 SW8G18    29.94R
ROANOKE        CLOUDY    80  57  45 NW13      30.00F
RICHMOND       PTSUNNY   86  62  44 W7        29.93S
RALEIGH        PTSUNNY   86  63  45 W8        29.97R

$$

ANZ530>537-292100-
MARINE OBSERVATIONS

STATION/POSITION TIME  TEMP    WIND        PRES
                       AIR SEA DIR/SP/G
                 (UTC) (F)     (DEG/KT/KT) (MB)
THOMAS PT LIGHT  2000   71 67   90/  8/  9   N/A
BALT KEY BRIDGE  1942   69     110/  9/ 10 1013.8S
COVE POINT       1942   71     190/  6/  6 1014.3F
LEWISETTA        1942   71 71  120/ 10/ 11 1013.6F
SOLOMONS ISLAND  1942   70 69   80/  8/  9   N/A
PINEY POINT      1948          160/ 12/ 13   N/A

$$




USA.gov is the U.S. government's official web portal to all federal, state and local government web resources and services.